Weather History for KVER - January, 2012

Change the Weather History Date:

Thursday, January 19, 2012

  Actual Average Record
Temperature  
Mean Temperature 26 °F -  
Max Temperature 34 °F 36 °F 67 °F (1951)
Min Temperature 18 °F 18 °F -3 °F (1970)
Degree Days  
Heating Degree Days 39    
Moisture  
Dew Point 16 °F    
Average Humidity 59    
Maximum Humidity 73    
Minimum Humidity 47    
Precipitation  
Precipitation 0.00 in - - ()
Sea Level Pressure  
Sea Level Pressure 29.99 in    
Wind  
Wind Speed 7 mph (NNE)    
Max Wind Speed 16 mph    
Max Gust Speed 22 mph    
Visibility 10 miles    
Events      
Averages and records for this station are not official NWS values.
T = Trace of Precipitation, MM = Missing Value Source: NWS Daily Summary

Daily Weather History Graph

Daily Weather History Graph

Search for Another Location

Airport or City:

Trip Planner

Search our weather history database for the weather conditions in past years. The results will help you decide how hot, cold, wet, or windy it might be!

Date:

Astronomy

Jan. 19, 2012 Rise Set
Actual Time 7:26 AM CST 5:16 PM CST
Civil Twilight 6:57 AM CST 5:45 PM CST
Nautical Twilight 6:24 AM CST 6:18 PM CST
Astronomical Twilight 5:52 AM CST 6:50 PM CST
Moon 4:02 AM CST (1/19) 1:49 PM CST (1/19)
Length of Visible Light 10h 48m
Length of Day
9h 50m
Waning Crescent, 15% of the Moon is Illuminated
Jan 19
Waning Crescent
Jan 23
New
Jan 30
First Quarter
Feb 7
Full
Feb 14
Last Quarter

Hourly Weather History & Observations

Time (CST) Temp. Windchill Dew Point Humidity Pressure Visibility Wind Dir Wind Speed Gust Speed Precip Events Conditions
12:15 AM 34.2 °F 27.5 °F 19.9 °F 56% 29.88 in 10.0 mi South 8.1 mph - N/A   Clear
12:35 AM 33.8 °F 28.6 °F 19.8 °F 56% 29.88 in 10.0 mi SSW 5.8 mph - N/A   Scattered Clouds
12:55 AM 33.8 °F - 19.8 °F 56% 29.88 in 10.0 mi Calm Calm - N/A   Scattered Clouds
1:15 AM 33.6 °F 30.6 °F 19.8 °F 57% 29.89 in 10.0 mi SW 3.5 mph - N/A   Clear
1:35 AM 33.3 °F - 19.9 °F 58% 29.88 in 10.0 mi Calm Calm - N/A   Clear
1:55 AM 33.4 °F 30.4 °F 19.9 °F 58% 29.88 in 10.0 mi South 3.5 mph - N/A   Clear
2:15 AM 32.9 °F 27.5 °F 20.7 °F 61% 29.88 in 10.0 mi South 5.8 mph - N/A   Scattered Clouds
2:35 AM 33.1 °F 30.0 °F 20.8 °F 61% 29.88 in 10.0 mi SSW 3.5 mph - N/A   Scattered Clouds
2:55 AM 33.8 °F - 20.7 °F 59% 29.88 in 10.0 mi Calm Calm - N/A   Mostly Cloudy
3:15 AM 33.4 °F 30.4 °F 21.0 °F 60% 29.88 in 10.0 mi SW 3.5 mph - N/A   Scattered Clouds
3:55 AM 34.0 °F 31.0 °F 20.7 °F 58% 29.89 in 10.0 mi WSW 3.5 mph - N/A   Clear
4:15 AM 33.8 °F - 20.8 °F 59% 29.90 in 10.0 mi Calm Calm - N/A   Clear
4:55 AM 33.8 °F 30.8 °F 21.7 °F 61% 29.90 in 10.0 mi SW 3.5 mph - N/A   Clear
5:15 AM 33.4 °F 30.4 °F 21.9 °F 63% 29.90 in 10.0 mi SW 3.5 mph - N/A   Clear
5:35 AM 32.9 °F 29.8 °F 22.3 °F 65% 29.91 in 10.0 mi SW 3.5 mph - N/A   Clear
5:55 AM 32.2 °F - 22.6 °F 68% 29.91 in 10.0 mi Calm Calm - N/A   Clear
6:35 AM 32.2 °F 28.9 °F 22.5 °F 67% 29.92 in 10.0 mi North 3.5 mph - N/A   Clear
6:55 AM 31.3 °F 27.9 °F 22.8 °F 71% 29.93 in 10.0 mi NNW 3.5 mph - N/A   Clear
7:15 AM 31.1 °F 27.7 °F 23.0 °F 72% 29.95 in 10.0 mi North 3.5 mph - N/A   Clear
7:35 AM 30.9 °F - 23.2 °F 73% 29.95 in 10.0 mi Calm Calm - N/A   Clear
7:55 AM 31.5 °F 24.9 °F 23.0 °F 71% 29.96 in 10.0 mi North 6.9 mph - N/A   Clear
8:15 AM 31.8 °F 21.8 °F 22.5 °F 68% 29.96 in 10.0 mi NNE 13.8 mph 19.6 mph N/A   Clear
8:35 AM 31.1 °F 20.5 °F 21.7 °F 68% 29.96 in 10.0 mi NNE 15.0 mph 20.7 mph N/A   Clear
8:55 AM 30.2 °F 19.8 °F 21.7 °F 71% 29.98 in 10.0 mi NNE 13.8 mph 18.4 mph N/A   Clear
9:15 AM 28.6 °F 18.7 °F 21.0 °F 73% 30.00 in 10.0 mi NNE 11.5 mph 19.6 mph N/A   Clear
9:35 AM 28.6 °F 18.2 °F 19.9 °F 70% 30.02 in 10.0 mi North 12.7 mph - N/A   Clear
9:55 AM 28.6 °F 17.7 °F 18.3 °F 65% 30.03 in 10.0 mi North 13.8 mph - N/A   Clear
10:15 AM 29.1 °F 18.4 °F 16.7 °F 60% 30.03 in 10.0 mi NNE 13.8 mph - N/A   Clear
10:55 AM 28.4 °F 17.0 °F 14.4 °F 56% 30.04 in 10.0 mi NNE 15.0 mph 20.7 mph N/A   Clear
11:15 AM 28.6 °F 18.2 °F 13.5 °F 53% 30.03 in 10.0 mi NNE 12.7 mph 17.3 mph N/A   Clear
11:35 AM 28.0 °F 17.0 °F 13.3 °F 54% 30.02 in 10.0 mi NE 13.8 mph - N/A   Clear
11:55 AM 27.7 °F 16.6 °F 13.1 °F 54% 30.01 in 10.0 mi NNE 13.8 mph - N/A   Clear
12:15 PM 27.9 °F 15.9 °F 13.1 °F 54% 30.02 in 10.0 mi North 16.1 mph 19.6 mph N/A   Clear
12:35 PM 28.8 °F 17.9 °F 13.1 °F 52% 30.03 in 10.0 mi NE 13.8 mph 18.4 mph N/A   Clear
12:55 PM 28.8 °F 17.0 °F 13.3 °F 52% 30.03 in 10.0 mi NE 16.1 mph 21.9 mph N/A   Clear
1:15 PM 28.8 °F 19.0 °F 13.3 °F 52% 30.02 in 10.0 mi ENE 11.5 mph 18.4 mph N/A   Clear
1:35 PM 29.3 °F 20.2 °F 13.5 °F 52% 30.02 in 10.0 mi NE 10.4 mph - N/A   Clear
1:55 PM 29.3 °F 19.1 °F 13.5 °F 52% 30.03 in 10.0 mi NNE 12.7 mph 18.4 mph N/A   Clear
2:15 PM 29.5 °F 19.9 °F 13.1 °F 51% 30.03 in 10.0 mi NE 11.5 mph - N/A   Clear
2:35 PM 29.5 °F 18.8 °F 12.4 °F 49% 30.04 in 10.0 mi NNE 13.8 mph 19.6 mph N/A   Clear
3:15 PM 28.8 °F 17.5 °F 10.6 °F 47% 30.05 in 10.0 mi NE 15.0 mph 19.6 mph N/A   Clear
3:35 PM 28.4 °F 18.0 °F 10.2 °F 47% 30.03 in 10.0 mi ENE 12.7 mph - N/A   Clear
4:15 PM 27.3 °F 16.6 °F 9.5 °F 47% 30.07 in 10.0 mi NNE 12.7 mph - N/A   Clear
4:35 PM 26.8 °F 17.1 °F 9.0 °F 47% 30.08 in 10.0 mi NNE 10.4 mph - N/A   Clear
4:55 PM 25.9 °F 14.8 °F 9.0 °F 49% 30.08 in 10.0 mi NNE 12.7 mph - N/A   Clear
5:15 PM 24.6 °F 14.4 °F 9.0 °F 51% 30.09 in 10.0 mi NNE 10.4 mph - N/A   Clear
5:35 PM 23.9 °F 13.5 °F 9.3 °F 54% 30.09 in 10.0 mi NNE 10.4 mph - N/A   Clear
6:15 PM 22.6 °F 11.3 °F 9.3 °F 57% 30.08 in 10.0 mi NE 11.5 mph 16.1 mph N/A   Clear
6:35 PM 22.3 °F 11.5 °F 8.8 °F 56% 30.08 in 10.0 mi NE 10.4 mph 17.3 mph N/A   Clear
6:55 PM 21.6 °F 11.3 °F 8.4 °F 57% 30.11 in 10.0 mi NNE 9.2 mph - N/A   Clear
7:15 PM 21.0 °F 9.9 °F 8.2 °F 58% 30.11 in 10.0 mi NE 10.4 mph - N/A   Clear
7:35 PM 20.5 °F 11.7 °F 7.7 °F 58% 30.11 in 10.0 mi NE 6.9 mph - N/A   Clear
7:55 PM 19.9 °F 10.1 °F 7.7 °F 59% 30.11 in 10.0 mi NE 8.1 mph - N/A   Clear
8:15 PM 19.4 °F 9.5 °F 8.1 °F 61% 30.10 in 10.0 mi NE 8.1 mph - N/A   Clear
8:35 PM 19.0 °F 10.0 °F 7.7 °F 61% 30.09 in 10.0 mi NE 6.9 mph - N/A   Clear
8:55 PM 18.5 °F 6.1 °F 7.5 °F 62% 30.08 in 10.0 mi NE 11.5 mph - N/A   Clear
9:15 PM 18.1 °F 5.0 °F 7.3 °F 63% 30.09 in 10.0 mi NE 12.7 mph - N/A   Clear
9:35 PM 17.6 °F 5.0 °F 7.5 °F 65% 30.08 in 10.0 mi NE 11.5 mph - N/A   Clear
9:55 PM 17.2 °F 3.3 °F 7.7 °F 66% 30.08 in 10.0 mi ENE 13.8 mph - N/A   Clear
10:15 PM 16.9 °F 7.4 °F 8.1 °F 68% 30.10 in 10.0 mi ENE 6.9 mph - N/A   Clear
10:35 PM 16.7 °F 5.3 °F 7.9 °F 68% 30.10 in 10.0 mi NE 9.2 mph - N/A   Clear
10:55 PM 16.5 °F 6.9 °F 7.7 °F 68% 30.11 in 10.0 mi NE 6.9 mph - N/A   Clear
11:15 PM 16.3 °F 5.7 °F 7.7 °F 69% 30.10 in 10.0 mi ENE 8.1 mph - N/A   Clear
11:35 PM 16.0 °F 6.3 °F 7.9 °F 70% 30.10 in 10.0 mi East 6.9 mph - N/A   Clear
11:55 PM 16.2 °F 4.7 °F 7.9 °F 70% 30.08 in 10.0 mi ENE 9.2 mph - N/A   Clear